Home > Weather > Lübbecke > Past weeks

Flag for Germany Past Weather in Lübbecke, North Rhine-Westphalia, Germany — Yesterday and Last 2 Weeks

Now
66 °F

Partly sunny.


Feels Like: 66 °F
Forecast: 58 / 73 °F
Wind: 7 mph from Southwest

Location: Bueckeburg

Current Time: Jun 30, 2016 at 6:04:30 PM

Latest Report: Jun 30, 2016 at 5:20 PM


Visibility: N/A

Pressure: 29.92 "Hg

Humidity: 73%

Dew Point: 57 °F

Location of LübbeckeLocation

Past Weather in Lübbecke — Graph

°F

Lübbecke Temperature Yesterday

Maximum temperature yesterday: 70 °F (at 5:20 PM)
Minimum temperature yesterday: 61 °F (at 4:20 AM)
Average temperature yesterday: 64 °F

High & Low Weather Summary for the Past Weeks

 TemperatureHumidityPressure
High90 °F (Jun 23, 4:20 PM)100% (Jun 17, 5:20 AM)30.24 "Hg (Jun 17, 5:20 AM)
Low50 °F (Jun 20, 1:20 AM)41% (Jun 23, 5:20 PM)29.50 "Hg (Jun 15, 4:20 PM)
Average64 °F78%29.96 "Hg
* Reported Jun 15 4:20 PM — Jun 30 4:20 PM, Lübbecke, Weather by CustomWeather, © 2016

Note: Actual official high and low records may vary slightly from our data, if they occured in-between our weather recording intervals... More about our weather records

Advertising

Lübbecke Weather History for the Previous 24 Hours

Scroll right to see more
 ConditionsComfort  
Time TempWeatherWind HumidityBarometerVisibility
4:20 PM
Thu, Jun 30
66 °FPartly sunny.13 mph73%29.92 "HgN/A
3:20 PM68 °FPartly sunny.12 mph64%29.89 "HgN/A
2:20 PM68 °FBroken clouds.13 mph64%29.89 "HgN/A
1:20 PM68 °FBroken clouds.13 mph69%29.89 "HgN/A
12:20 PM66 °FBroken clouds.9 mph68%29.89 "HgN/A
11:20 AM64 °FBroken clouds.14 mph73%29.89 "HgN/A
10:20 AM63 °FBroken clouds.14 mph77%29.89 "HgN/A
9:20 AM61 °FBroken clouds.10 mph83%29.89 "HgN/A
8:52 AM61 °FDrizzle. Partly sunny.12 mph83%29.86 "HgN/A
8:20 AM61 °FMostly cloudy.13 mph83%29.86 "Hg6 mi
7:20 AM61 °FLight rain. Mostly cloudy.9 mph83%29.86 "HgN/A
6:20 AM63 °FPartly sunny.9 mph68%29.86 "HgN/A
5:20 AM63 °FPassing clouds.12 mph64%29.83 "HgN/A
4:20 AM63 °FPassing clouds.8 mph64%29.86 "HgN/A
3:20 AM63 °FLight rain. Overcast.6 mph64%29.86 "HgN/A
2:20 AM63 °FOvercast.7 mph64%29.86 "HgN/A
1:20 AM61 °FOvercast.3 mph72%29.86 "HgN/A
12:20 AM63 °FOvercast.5 mph68%29.86 "HgN/A
11:20 PM
Wed, Jun 29
63 °FOvercast.6 mph68%29.89 "HgN/A
10:20 PM63 °FBroken clouds.5 mph68%29.89 "HgN/A
9:20 PM64 °FBroken clouds.6 mph64%29.89 "HgN/A
8:20 PM66 °FPartly sunny.9 mph52%29.89 "HgN/A
7:20 PM70 °FScattered clouds.15 mph50%29.86 "HgN/A
6:20 PM70 °FPassing clouds.14 mph46%29.86 "HgN/A
Weather by CustomWeather, © 2016

See weather overviewHow to use our weather pages